EW9411 Weather Reports


Display with metric or nautical units.
time (UTC)temp
F
wind
direction
speed
MPH
gust
MPH
rain 1hr
in
rain 24hr
in
rain mn
in
humidity
%
barometer
mb
20210622174220 63 10 2.0 12.0 0.00 0.00 0.00 89 1006.5
20210622174016 63 17 3.0 12.0 0.00 0.00 0.00 89 1006.4
20210622173708 63 10 3.0 12.0 0.00 0.00 0.00 89 1006.4
20210622173520 63 337 3.0 12.0 0.00 0.00 0.00 89 1006.3
20210622173211 63 324 3.0 8.0 0.00 0.00 0.00 89 1006.5
20210622173023 63 6 3.0 8.0 0.00 0.00 0.00 89 1006.5
20210622172714 63 12 4.0 8.0 0.00 0.00 0.00 89 1006.4
20210622172526 63 10 4.0 8.0 0.00 0.00 0.00 89 1006.3
20210622172219 63 39 3.0 5.0 0.00 0.00 0.00 89 1006.1
20210622172011 64 23 3.0 5.0 0.00 0.00 0.00 88 1006.1
20210622171722 64 1 3.0 5.0 0.00 0.00 0.00 88 1006.4
20210622171514 64 356 3.0 5.0 0.00 0.00 0.00 88 1006.6
20210622171227 64 342 3.0 5.0 0.00 0.00 0.00 88 1006.5
20210622171019 64 346 3.0 5.0 0.00 0.00 0.00 88 1006.4
20210622170709 64 342 2.0 5.0 0.00 0.00 0.00 88 1006.5
20210622170525 64 341 2.0 5.0 0.00 0.00 0.00 88 1006.5
20210622170213 64 346 2.0 5.0 0.00 0.00 0.00 87 1006.7
20210622170008 64 356 3.0 9.0 0.00 0.00 0.00 87 1006.8
20210622165715 64 11 2.0 9.0 0.00 0.00 0.00 87 1007.1
20210622165511 64 356 2.0 9.0 0.00 0.00 0.00 87 1007.0
20210622165220 64 16 3.0 10.0 0.00 0.00 0.00 86 1006.7
20210622165016 65 351 2.0 10.0 0.00 0.00 0.00 86 1007.0
20210622164707 65 17 4.0 12.0 0.00 0.00 0.00 85 1006.6
20210622164519 65 1 4.0 12.0 0.00 0.00 0.00 84 1006.8
20210622164211 65 8 4.0 12.0 0.00 0.00 0.00 84 1006.7
20210622164023 66 20 5.0 12.0 0.00 0.00 0.00 83 1006.8
20210622163714 66 43 5.0 10.0 0.00 0.00 0.00 83 1006.4
20210622163525 66 15 4.0 9.0 0.00 0.00 0.00 83 1006.4
20210622163216 66 356 4.0 10.0 0.00 0.00 0.00 83 1006.8
20210622163008 66 24 4.0 10.0 0.00 0.00 0.00 83 1006.4
20210622162720 66 1 4.0 10.0 0.00 0.00 0.00 83 1006.7
20210622162511 66 15 5.0 10.0 0.00 0.00 0.00 83 1006.7
20210622162223 66 25 4.0 9.0 0.00 0.00 0.00 83 1006.5
20210622162015 66 21 3.0 9.0 0.00 0.00 0.00 83 1006.5
20210622161727 66 31 4.0 9.0 0.00 0.00 0.00 82 1006.4
20210622161519 67 29 4.0 8.0 0.00 0.00 0.00 82 1006.4
20210622161211 67 26 3.0 8.0 0.00 0.00 0.00 82 1006.4
20210622161027 67 356 2.0 8.0 0.00 0.00 0.00 82 1006.4
20210622160714 67 34 5.0 8.0 0.00 0.00 0.00 82 1006.3
20210622160510 67 13 4.0 12.0 0.00 0.00 0.00 82 1006.3
20210622160219 67 33 4.0 12.0 0.00 0.00 0.00 82 1006.4
20210622160015 67 356 4.0 12.0 0.00 0.00 0.00 81 1006.3
20210622155723 67 10 6.0 12.0 0.00 0.00 0.00 81 1006.2
20210622155518 67 17 4.0 10.0 0.00 0.00 0.00 81 1006.3
20210622155210 67 346 7.0 10.0 0.00 0.00 0.00 80 1006.3
20210622155021 67 356 5.0 11.0 0.00 0.00 0.00 80 1006.3
20210622154713 67 29 5.0 11.0 0.00 0.00 0.00 80 1006.4
20210622154525 67 356 5.0 11.0 0.00 0.00 0.00 80 1006.5
20210622154217 68 18 5.0 11.0 0.00 0.00 0.00 80 1006.4
20210622154008 68 1 4.0 10.0 0.00 0.00 0.00 80 1006.4
20210622153721 67 351 4.0 11.0 0.00 0.00 0.00 81 1006.4
20210622153512 67 44 6.0 11.0 0.00 0.00 0.00 80 1006.5
20210622153223 67 6 6.0 11.0 0.00 0.00 0.00 80 1006.5
20210622153016 67 334 7.0 11.0 0.00 0.00 0.00 80 1006.5
20210622152727 67 25 5.0 10.0 0.00 0.00 0.00 80 1006.4
20210622152518 67 346 4.0 9.0 0.00 0.00 0.00 80 1006.5
20210622152210 67 8 4.0 9.0 0.00 0.00 0.00 80 1006.5
20210622152021 67 360 5.0 11.0 0.00 0.00 0.00 79 1006.4
20210622151712 67 29 4.0 12.0 0.00 0.00 0.00 80 1006.4
20210622151508 67 15 5.0 12.0 0.00 0.00 0.00 79 1006.4
20210622151215 67 356 5.0 12.0 0.00 0.00 0.00 79 1006.3
20210622151012 68 10 7.0 12.0 0.00 0.00 0.00 79 1006.3
20210622150718 68 335 5.0 11.0 0.00 0.00 0.00 78 1006.4
20210622150514 68 2 4.0 11.0 0.00 0.00 0.00 79 1006.4
20210622150221 68 21 5.0 11.0 0.00 0.00 0.00 79 1006.4
20210622150017 68 346 5.0 13.0 0.00 0.00 0.00 79 1006.4
20210622145709 68 342 4.0 13.0 0.00 0.00 0.00 79 1006.3
20210622145521 68 356 4.0 13.0 0.00 0.00 0.00 79 1006.3
20210622145213 68 351 6.0 15.0 0.00 0.00 0.00 78 1006.2
20210622145026 68 2 6.0 15.0 0.00 0.00 0.00 78 1006.3
20210622144718 68 10 8.0 15.0 0.00 0.00 0.00 77 1006.2
20210622144509 68 17 5.0 15.0 0.00 0.00 0.00 79 1006.2
20210622144221 68 5 8.0 15.0 0.00 0.00 0.00 78 1006.1
20210622144012 69 13 4.0 12.0 0.00 0.00 0.00 79 1006.1
20210622143724 69 9 5.0 10.0 0.00 0.00 0.00 80 1006.0
20210622143515 69 356 5.0 10.0 0.00 0.00 0.00 81 1006.0
20210622143227 69 346 4.0 10.0 0.00 0.00 0.00 81 1006.1
20210622143018 69 339 4.0 8.0 0.00 0.00 0.00 81 1006.1
20210622142707 69 13 4.0 11.0 0.00 0.00 0.00 82 1006.0
20210622142520 69 3 3.0 11.0 0.00 0.00 0.00 83 1005.9
20210622142208 69 8 5.0 11.0 0.00 0.00 0.00 82 1005.9
20210622142025 69 25 5.0 11.0 0.00 0.00 0.00 82 1005.9
20210622141712 70 346 4.0 10.0 0.00 0.00 0.00 81 1005.8
20210622141508 70 15 2.0 10.0 0.00 0.00 0.00 82 1005.8
20210622141216 70 36 3.0 10.0 0.00 0.00 0.00 81 1005.7
20210622141012 70 338 3.0 6.0 0.00 0.00 0.00 80 1005.6
20210622140719 70 356 3.0 6.0 0.00 0.00 0.00 79 1005.6
20210622140515 70 1 3.0 5.0 0.00 0.00 0.00 80 1005.6
20210622140223 70 7 2.0 4.0 0.00 0.00 0.00 80 1005.6
20210622140019 70 351 2.0 4.0 0.00 0.00 0.00 80 1005.7
20210622135712 70 360 2.0 5.0 0.00 0.00 0.00 79 1005.6
20210622135524 70 360 2.0 5.0 0.00 0.00 0.00 80 1005.6
20210622135214 70 360 2.0 5.0 0.00 0.00 0.00 79 1005.7
20210622135026 70 360 3.0 6.0 0.00 0.00 0.00 79 1005.6
20210622134719 71 314 3.0 6.0 0.00 0.00 0.00 79 1005.6
20210622134511 71 342 3.0 6.0 0.00 0.00 0.00 78 1005.7
20210622134222 71 356 3.0 7.0 0.00 0.00 0.00 79 1005.6
20210622134014 71 12 3.0 5.0 0.00 0.00 0.00 77 1005.6
20210622133725 71 24 3.0 5.0 0.00 0.00 0.00 77 1005.5
20210622133517 71 8 3.0 6.0 0.00 0.00 0.00 77 1005.5
20210622133209 72 19 3.0 9.0 0.00 0.00 0.00 77 1005.4
20210622133022 72 1 2.0 9.0 0.00 0.00 0.00 77 1005.4
20210622132712 72 21 4.0 9.0 0.00 0.00 0.00 77 1005.4
20210622132528 72 18 5.0 9.0 0.00 0.00 0.00 77 1005.3
20210622132215 72 20 3.0 9.0 0.00 0.00 0.00 76 1005.3
20210622132010 72 341 4.0 9.0 0.00 0.00 0.00 77 1005.2
20210622131718 72 23 5.0 8.0 0.00 0.00 0.00 76 1005.2
20210622131514 72 33 4.0 9.0 0.00 0.00 0.00 77 1005.1
20210622131223 72 1 4.0 9.0 0.00 0.00 0.00 78 1005.2
20210622131019 72 360 4.0 9.0 0.00 0.00 0.00 77 1005.2
20210622130710 72 42 3.0 9.0 0.00 0.00 0.00 78 1005.1
20210622130522 72 23 3.0 9.0 0.00 0.00 0.00 78 1005.1
20210622130215 72 53 4.0 9.0 0.00 0.00 0.00 78 1005.0
20210622130027 73 44 3.0 9.0 0.00 0.00 0.00 79 1004.9
20210622125717 73 3 2.0 4.0 0.00 0.00 0.00 79 1004.9
20210622125510 73 3 3.0 4.0 0.00 0.00 0.00 79 1004.9
20210622125221 73 3 1.0 6.0 0.00 0.01 0.00 80 1004.9
20210622125013 73 3 2.0 6.0 0.00 0.01 0.00 81 1004.9
20210622124725 73 3 3.0 6.0 0.00 0.01 0.00 81 1004.8
20210622124517 73 346 3.0 8.0 0.00 0.01 0.00 81 1004.9
20210622124209 73 338 3.0 8.0 0.00 0.01 0.00 82 1004.7
20210622124020 73 351 2.0 8.0 0.00 0.01 0.00 82 1004.7
20210622123712 73 337 2.0 6.0 0.00 0.01 0.00 81 1004.7
20210622123508 73 356 2.0 6.0 0.00 0.01 0.00 81 1004.7
20210622123215 73 356 4.0 8.0 0.00 0.01 0.00 80 1004.7
20210622123012 73 360 2.0 8.0 0.00 0.01 0.00 80 1004.7
20210622122719 73 4 2.0 13.0 0.00 0.01 0.00 81 1004.7
20210622122515 73 356 2.0 13.0 0.00 0.01 0.00 81 1004.6
20210622122222 73 323 3.0 13.0 0.00 0.01 0.00 80 1004.6
20210622122018 73 19 4.0 13.0 0.00 0.01 0.00 81 1004.4
20210622121726 73 351 4.0 13.0 0.00 0.01 0.00 80 1004.4
20210622121522 73 4 7.0 13.0 0.00 0.01 0.00 80 1004.4
20210622121214 73 10 5.0 10.0 0.00 0.01 0.00 82 1004.3
20210622121025 74 29 4.0 10.0 0.00 0.01 0.00 83 1004.3
20210622120716 74 8 5.0 10.0 0.00 0.01 0.00 84 1004.3
20210622120508 74 297 2.0 5.0 0.00 0.01 0.00 87 1004.3
20210622120220 73 4 3.0 5.0 0.00 0.01 0.00 87 1004.2
20210622120012 73 356 2.0 5.0 0.00 0.01 0.00 87 1004.1
20210622115723 73 329 2.0 4.0 0.00 0.01 0.00 88 1004.1
20210622115515 73 2 2.0 4.0 0.00 0.01 0.00 87 1004.0
20210622115227 73 2 2.0 4.0 0.00 0.01 0.00 88 1004.1
20210622115020 73 201 0.0 2.0 0.00 0.01 0.00 88 1004.1
20210622114711 73 201 0.0 1.0 0.00 0.01 0.00 88 1004.1
20210622114523 73 201 0.0 2.0 0.00 0.01 0.00 88 1004.2
20210622114215 73 201 0.0 2.0 0.00 0.01 0.00 89 1004.2
20210622114011 73 201 1.0 2.0 0.00 0.01 0.00 89 1004.2
20210622113719 73 201 0.0 2.0 0.00 0.01 0.00 89 1004.2
20210622113515 72 201 0.0 1.0 0.00 0.01 0.00 89 1004.2
20210622113223 72 201 0.0 1.0 0.00 0.01 0.00 89 1004.2
20210622113019 72 201 0.0 1.0 0.00 0.01 0.00 89 1004.2
20210622112726 72 201 0.0 2.0 0.00 0.01 0.00 88 1004.2
20210622112522 72 201 0.0 3.0 0.00 0.01 0.00 88 1004.2
20210622112210 72 201 0.0 4.0 0.00 0.01 0.00 89 1004.2
20210622112027 72 201 1.0 4.0 0.00 0.01 0.00 88 1004.2
20210622111718 72 201 3.0 4.0 0.00 0.01 0.00 88 1004.2
20210622111509 72 201 2.0 4.0 0.00 0.01 0.00 88 1004.2
20210622111222 72 201 1.0 2.0 0.00 0.01 0.00 89 1004.2
20210622111014 72 201 0.0 2.0 0.00 0.01 0.00 89 1004.2
20210622110724 72 201 1.0 4.0 0.00 0.01 0.00 90 1004.1
20210622110517 71 201 1.0 4.0 0.00 0.01 0.00 90 1004.0
20210622110209 71 201 2.0 4.0 0.00 0.01 0.00 90 1004.0
20210622110021 71 201 2.0 4.0 0.00 0.01 0.00 90 1004.0
20210622105712 71 195 2.0 3.0 0.00 0.01 0.00 90 1003.9
20210622105524 71 195 2.0 3.0 0.00 0.01 0.00 90 1003.9
20210622105217 71 194 2.0 5.0 0.00 0.01 0.00 90 1003.8
20210622105009 71 194 2.0 5.0 0.00 0.01 0.00 90 1003.8
20210622104720 71 194 2.0 5.0 0.00 0.01 0.00 90 1003.7
20210622104516 71 194 2.0 5.0 0.00 0.01 0.00 90 1003.7
20210622104225 71 202 1.0 4.0 0.00 0.01 0.00 91 1003.7
20210622104021 71 202 2.0 4.0 0.00 0.01 0.00 91 1003.7
20210622103708 70 202 2.0 4.0 0.00 0.01 0.00 90 1003.8
20210622103525 70 202 0.0 0.0 0.00 0.01 0.00 90 1003.7
20210622103213 70 202 0.0 0.0 0.00 0.01 0.00 90 1003.6
20210622103009 70 202 0.0 0.0 0.00 0.01 0.00 90 1003.6
20210622102716 70 202 0.0 0.0 0.00 0.01 0.00 90 1003.6
20210622102512 70 202 0.0 0.0 0.00 0.01 0.00 90 1003.6
20210622102224 70 202 0.0 0.0 0.00 0.01 0.00 90 1003.6
20210622102015 70 202 0.0 0.0 0.00 0.01 0.00 90 1003.6
20210622101727 70 202 0.0 0.0 0.00 0.01 0.00 90 1003.6
20210622101519 70 202 0.0 0.0 0.00 0.01 0.00 91 1003.5
20210622101209 70 202 0.0 2.0 0.00 0.01 0.00 91 1003.5
20210622101022 70 202 0.0 2.0 0.00 0.01 0.00 90 1003.4
20210622100713 70 202 0.0 2.0 0.00 0.01 0.00 91 1003.4
20210622100525 70 202 0.0 2.0 0.00 0.01 0.00 91 1003.4
20210622100217 70 202 0.0 2.0 0.00 0.01 0.00 91 1003.4
20210622100009 70 202 1.0 2.0 0.00 0.01 0.00 91 1003.5
20210622095720 70 202 1.0 3.0 0.00 0.01 0.00 90 1003.4
20210622095513 70 202 0.0 3.0 0.00 0.01 0.00 90 1003.4
20210622095225 70 202 1.0 3.0 0.00 0.01 0.00 90 1003.4
20210622095021 70 202 1.0 3.0 0.00 0.01 0.00 90 1003.4
20210622094708 70 202 1.0 2.0 0.00 0.01 0.00 90 1003.3
20210622094524 70 202 0.0 2.0 0.00 0.01 0.00 90 1003.3
20210622094212 70 202 1.0 2.0 0.00 0.01 0.00 90 1003.3
20210622094008 70 202 1.0 2.0 0.00 0.01 0.00 90 1003.3
20210622093715 70 202 1.0 2.0 0.00 0.01 0.00 90 1003.2
20210622093510 70 202 1.0 2.0 0.00 0.01 0.00 90 1003.2
20210622093217 70 202 1.0 2.0 0.00 0.01 0.00 89 1003.2
20210622093013 70 202 1.0 2.0 0.00 0.01 0.00 89 1003.2
20210622092726 70 202 0.0 2.0 0.00 0.01 0.00 89 1003.1
20210622092517 70 202 0.0 2.0 0.00 0.01 0.00 89 1003.0
20210622092208 71 202 0.0 2.0 0.00 0.01 0.00 89 1003.1
20210622092021 71 202 1.0 2.0 0.00 0.01 0.00 89 1003.0
20210622091711 71 202 0.0 1.0 0.00 0.01 0.00 89 1002.9
20210622091524 71 202 0.0 2.0 0.00 0.01 0.00 89 1002.9
20210622091217 71 202 0.0 2.0 0.00 0.01 0.00 89 1002.7
20210622091028 71 202 1.0 2.0 0.00 0.01 0.00 89 1002.8
20210622090719 71 202 1.0 2.0 0.00 0.01 0.00 90 1002.9
20210622090512 71 202 1.0 2.0 0.00 0.01 0.00 90 1002.8
20210622090224 71 202 1.0 2.0 0.00 0.01 0.00 90 1002.7
20210622090016 71 202 1.0 2.0 0.00 0.01 0.00 90 1002.6
20210622085727 71 202 1.0 2.0 0.00 0.01 0.00 89 1002.5
20210622085522 71 202 1.0 2.0 0.00 0.01 0.00 89 1002.5
20210622085210 71 202 0.0 2.0 0.00 0.01 0.00 90 1002.5
20210622085025 71 202 0.0 2.0 0.00 0.01 0.00 90 1002.4
20210622084713 71 202 1.0 2.0 0.00 0.01 0.00 90 1002.3
20210622084508 71 202 0.0 2.0 0.00 0.01 0.00 90 1002.4
20210622084215 71 202 0.0 2.0 0.00 0.01 0.00 90 1002.4
20210622084012 71 202 0.0 2.0 0.00 0.01 0.00 90 1002.4
20210622083720 71 202 0.0 1.0 0.00 0.01 0.00 90 1002.4
20210622083517 70 202 0.0 1.0 0.00 0.01 0.00 90 1002.4
20210622083227 71 202 0.0 1.0 0.00 0.01 0.00 90 1002.4
20210622083019 71 202 0.0 1.0 0.00 0.01 0.00 90 1002.4
20210622082711 71 202 0.0 1.0 0.00 0.01 0.00 90 1002.4
20210622082523 71 202 0.0 1.0 0.00 0.01 0.00 90 1002.4
20210622082214 71 202 0.0 2.0 0.00 0.01 0.00 89 1002.3
20210622082027 71 202 0.0 2.0 0.00 0.01 0.00 89 1002.4
20210622081719 71 202 1.0 2.0 0.00 0.01 0.00 89 1002.4
20210622081511 71 202 0.0 2.0 0.00 0.01 0.00 89 1002.4
20210622081223 71 202 1.0 2.0 0.00 0.01 0.00 89 1002.4
20210622081015 71 202 0.0 2.0 0.00 0.01 0.00 89 1002.4
20210622080726 71 202 0.0 1.0 0.00 0.01 0.00 89 1002.3
20210622080517 71 202 0.0 1.0 0.00 0.01 0.00 89 1002.2
20210622080209 71 202 0.0 1.0 0.00 0.01 0.00 89 1002.1
20210622080024 71 202 0.0 1.0 0.00 0.01 0.00 89 1002.2
20210622075725 71 202 0.0 1.0 0.00 0.01 0.00 89 1002.1
20210622075521 71 202 0.0 2.0 0.00 0.01 0.00 89 1002.1
20210622075209 72 202 0.0 2.0 0.00 0.01 0.00 89 1002.2
20210622075026 72 202 0.0 2.0 0.00 0.01 0.00 89 1002.2
20210622074713 72 202 1.0 2.0 0.00 0.01 0.00 88 1002.2
20210622074510 72 202 1.0 1.0 0.00 0.01 0.00 88 1002.1
20210622074217 72 202 0.0 1.0 0.00 0.01 0.00 88 1002.1
20210622074013 72 202 0.0 1.0 0.00 0.01 0.00 88 1002.2
20210622073724 72 202 0.0 1.0 0.00 0.01 0.00 88 1002.2
20210622073516 72 202 0.0 1.0 0.00 0.01 0.00 88 1002.1
20210622073208 72 202 0.0 1.0 0.00 0.01 0.00 87 1002.1
20210622073020 72 202 0.0 1.0 0.00 0.01 0.00 87 1002.2
20210622072712 72 202 0.0 1.0 0.00 0.01 0.00 87 1002.2
20210622072523 72 202 0.0 1.0 0.00 0.01 0.00 87 1002.3
20210622072214 72 202 0.0 1.0 0.00 0.01 0.00 87 1002.4
20210622072027 72 202 0.0 1.0 0.00 0.01 0.00 87 1002.4
20210622071718 72 202 0.0 1.0 0.00 0.01 0.00 87 1002.3
20210622071510 72 202 0.0 1.0 0.00 0.01 0.00 87 1002.3
20210622071222 72 202 0.0 2.0 0.00 0.01 0.00 86 1002.4
20210622071014 72 202 0.0 2.0 0.00 0.01 0.00 87 1002.4
20210622070726 72 202 0.0 3.0 0.00 0.01 0.00 87 1002.5
20210622070522 72 202 1.0 3.0 0.00 0.01 0.00 87 1002.4
20210622070210 72 202 2.0 4.0 0.00 0.01 0.00 87 1002.3
20210622070027 72 202 1.0 4.0 0.00 0.01 0.00 87 1002.3
20210622065714 72 202 2.0 5.0 0.00 0.01 0.00 87 1002.3
20210622065511 72 190 2.0 5.0 0.00 0.01 0.00 87 1002.3
20210622065218 72 190 2.0 5.0 0.00 0.01 0.00 87 1002.3
20210622065014 72 190 3.0 5.0 0.00 0.01 0.00 87 1002.3
20210622064723 72 177 2.0 4.0 0.00 0.01 0.00 87 1002.3
20210622064519 72 177 2.0 4.0 0.00 0.01 0.00 87 1002.4
20210622064210 72 156 1.0 5.0 0.00 0.01 0.00 87 1002.3
20210622064021 72 156 2.0 5.0 0.00 0.01 0.00 87 1002.3
20210622063712 72 204 2.0 3.0 0.00 0.01 0.00 87 1002.3
20210622063525 72 204 2.0 3.0 0.00 0.01 0.00 87 1002.4
20210622063216 72 204 2.0 3.0 0.00 0.01 0.00 87 1002.5
20210622063027 72 204 1.0 2.0 0.00 0.01 0.00 87 1002.5
20210622062719 72 204 1.0 2.0 0.00 0.01 0.00 87 1002.5
20210622062511 72 204 0.0 1.0 0.00 0.01 0.00 87 1002.6
20210622062222 72 204 0.0 2.0 0.00 0.01 0.00 86 1002.5
20210622062015 72 204 0.0 3.0 0.00 0.01 0.00 86 1002.5
20210622061726 72 204 0.0 4.0 0.00 0.01 0.00 86 1002.5
20210622061519 72 204 1.0 4.0 0.00 0.01 0.00 86 1002.5
20210622061211 72 204 2.0 4.0 0.00 0.01 0.00 86 1002.5
20210622061027 73 204 2.0 4.0 0.00 0.01 0.00 86 1002.5
20210622060714 73 204 2.0 3.0 0.00 0.01 0.00 86 1002.5
20210622060511 73 204 2.0 5.0 0.00 0.01 0.00 86 1002.4
20210622060219 73 204 1.0 6.0 0.00 0.01 0.00 87 1002.4
20210622060015 72 204 1.0 6.0 0.00 0.01 0.00 87 1002.4
20210622055723 72 204 2.0 6.0 0.00 0.01 0.00 86 1002.4
20210622055520 72 207 3.0 6.0 0.00 0.01 0.00 86 1002.4
20210622055212 72 218 3.0 4.0 0.00 0.01 0.00 87 1002.4
20210622055024 72 185 2.0 4.0 0.00 0.01 0.00 87 1002.4
20210622054714 72 196 2.0 3.0 0.00 0.01 0.00 87 1002.4
20210622054527 72 196 2.0 3.0 0.00 0.01 0.00 87 1002.4
20210622054219 72 196 1.0 3.0 0.00 0.01 0.00 86 1002.3
20210622054011 72 196 1.0 3.0 0.00 0.01 0.00 86 1002.2
20210622053722 72 196 1.0 3.0 0.00 0.01 0.00 86 1002.3
20210622053515 72 196 2.0 3.0 0.00 0.01 0.00 86 1002.4
20210622053226 72 198 0.0 2.0 0.00 0.01 0.00 86 1002.5
20210622053018 73 198 1.0 2.0 0.00 0.01 0.00 86 1002.5
20210622052710 73 198 1.0 2.0 0.00 0.01 0.00 86 1002.6
20210622052523 73 198 0.0 2.0 0.00 0.01 0.00 86 1002.7
20210622052214 73 198 1.0 2.0 0.00 0.01 0.00 86 1002.6
20210622052010 73 198 1.0 2.0 0.00 0.01 0.00 86 1002.6
20210622051717 73 198 1.0 5.0 0.00 0.01 0.00 86 1002.5
20210622051513 73 198 0.0 5.0 0.00 0.01 0.00 86 1002.4
20210622051222 73 198 1.0 5.0 0.00 0.01 0.00 86 1002.3
20210622051018 73 198 3.0 5.0 0.00 0.01 0.00 86 1002.3
20210622050726 73 196 2.0 4.0 0.00 0.01 0.00 86 1002.3
20210622050522 73 196 3.0 4.0 0.00 0.01 0.00 86 1002.2
20210622050210 73 194 2.0 4.0 0.00 0.01 0.00 86 1002.2
20210622050026 73 193 1.0 4.0 0.00 0.01 0.00 86 1002.2
20210622045718 73 194 2.0 4.0 0.00 0.01 0.00 86 1002.2
20210622045510 73 195 2.0 4.0 0.00 0.01 0.00 86 1002.2
20210622045221 73 186 2.0 4.0 0.00 0.01 0.00 86 1002.2
20210622045013 73 186 2.0 4.0 0.00 0.01 0.00 85 1002.0
20210622044725 73 186 1.0 3.0 0.00 0.01 0.00 85 1001.8
20210622044517 73 186 1.0 3.0 0.00 0.01 0.00 86 1001.8
20210622044227 73 186 2.0 3.0 0.00 0.01 0.00 86 1001.8
20210622044018 73 186 1.0 2.0 0.00 0.01 0.00 86 1001.8
20210622043710 73 186 0.0 4.0 0.00 0.01 0.00 85 1001.8
20210622043522 73 186 1.0 4.0 0.00 0.01 0.00 85 1001.8
20210622043214 73 186 1.0 4.0 0.00 0.01 0.00 85 1001.9
20210622043026 73 186 2.0 4.0 0.00 0.01 0.00 85 1002.0
20210622042718 73 186 1.0 6.0 0.00 0.01 0.00 85 1002.0
20210622042514 73 186 1.0 6.0 0.00 0.01 0.00 85 1002.0
20210622042222 73 186 3.0 6.0 0.00 0.01 0.00 85 1002.0
20210622042016 73 192 2.0 7.0 0.00 0.01 0.00 85 1002.0
20210622041723 73 190 3.0 7.0 0.00 0.01 0.00 85 1001.9
20210622041520 73 214 3.0 9.0 0.00 0.01 0.00 85 1002.0
20210622041208 73 210 4.0 9.0 0.00 0.01 0.00 85 1002.1
20210622041023 73 211 4.0 9.0 0.00 0.01 0.00 85 1002.2
20210622040711 74 224 4.0 9.0 0.00 0.01 0.00 85 1002.2
20210622040527 74 231 5.0 9.0 0.00 0.01 0.00 85 1002.2
20210622040218 74 248 4.0 8.0 0.00 0.01 0.00 85 1002.2
20210622040011 74 187 5.0 8.0 0.00 0.01 0.00 85 1002.1
20210622035723 74 205 5.0 8.0 0.00 0.01 0.00 85 1002.2
20210622035515 74 231 3.0 8.0 0.00 0.01 0.00 85 1002.2
20210622035223 74 221 4.0 8.0 0.00 0.01 0.01 85 1002.3
20210622035015 74 189 3.0 12.0 0.00 0.01 0.01 85 1002.3
20210622034728 74 239 4.0 12.0 0.00 0.01 0.01 85 1002.3
20210622034520 74 199 4.0 12.0 0.00 0.01 0.01 85 1002.3
20210622034211 74 225 6.0 12.0 0.00 0.01 0.01 84 1002.2
20210622034024 74 205 5.0 7.0 0.00 0.01 0.01 85 1002.3
20210622033714 74 210 2.0 7.0 0.00 0.01 0.01 85 1002.1
20210622033527 74 210 3.0 7.0 0.00 0.01 0.01 85 1002.0
20210622033219 74 209 4.0 6.0 0.00 0.01 0.01 85 1002.0
20210622033015 74 214 2.0 4.0 0.00 0.01 0.01 85 1001.9
20210622032722 75 194 3.0 4.0 0.00 0.01 0.01 85 1001.9
20210622032519 75 195 3.0 4.0 0.00 0.01 0.01 85 1001.7
20210622032227 75 195 3.0 4.0 0.00 0.01 0.01 85 1001.7
20210622032023 75 199 3.0 4.0 0.00 0.01 0.01 84 1001.6
20210622031711 75 216 2.0 4.0 0.00 0.01 0.01 84 1001.5
20210622031527 75 356 1.0 4.0 0.00 0.01 0.01 84 1001.4
20210622031214 75 356 1.0 4.0 0.00 0.01 0.01 84 1001.4
20210622031010 75 356 1.0 4.0 0.00 0.01 0.01 84 1001.5
20210622030723 75 253 1.0 3.0 0.00 0.01 0.01 84 1001.6
20210622030515 75 253 1.0 3.0 0.00 0.01 0.01 84 1001.7
20210622030227 76 253 1.0 4.0 0.00 0.01 0.01 83 1001.9
20210622030019 76 253 0.0 5.0 0.00 0.01 0.01 83 1001.8
20210622025710 76 253 1.0 9.0 0.00 0.01 0.01 83 1001.8
20210622025523 76 241 3.0 9.0 0.00 0.01 0.01 83 1002.0
20210622025215 76 210 4.0 9.0 0.00 0.01 0.01 83 1002.1
20210622025028 76 223 6.0 9.0 0.00 0.01 0.01 83 1002.0
20210622024719 76 217 3.0 9.0 0.00 0.01 0.01 83 1002.1
20210622024511 76 227 5.0 9.0 0.00 0.01 0.01 83 1002.1
20210622024222 76 219 3.0 9.0 0.00 0.01 0.01 82 1002.1
20210622024015 76 229 4.0 9.0 0.00 0.01 0.01 82 1002.2
20210622023726 76 215 4.0 8.0 0.00 0.01 0.01 82 1002.2
20210622023522 76 259 3.0 7.0 0.00 0.01 0.01 82 1002.2
20210622023210 76 250 1.0 4.0 0.00 0.01 0.01 83 1002.3
20210622023027 76 250 2.0 5.0 0.00 0.01 0.01 83 1002.4
20210622022714 76 250 1.0 8.0 0.00 0.01 0.01 83 1002.5
20210622022509 76 250 2.0 8.0 0.00 0.01 0.01 82 1002.5
20210622022216 76 249 4.0 11.0 0.00 0.01 0.01 82 1002.6
20210622022013 76 216 4.0 11.0 0.00 0.01 0.01 82 1002.6
20210622021721 77 208 3.0 12.0 0.00 0.01 0.01 82 1002.6
20210622021517 77 253 4.0 12.0 0.00 0.01 0.01 82 1002.6
20210622021208 77 259 4.0 12.0 0.00 0.01 0.01 82 1002.7
20210622021020 77 231 5.0 12.0 0.00 0.01 0.01 81 1002.8
20210622020711 78 266 5.0 15.0 0.00 0.01 0.01 80 1002.8
20210622020523 78 250 5.0 15.0 0.00 0.01 0.01 79 1002.8
20210622020215 79 235 6.0 15.0 0.00 0.01 0.01 79 1002.7
20210622020027 79 229 6.0 15.0 0.00 0.01 0.01 78 1002.7
20210622015720 80 231 3.0 11.0 0.00 0.01 0.01 77 1002.6
20210622015512 80 249 3.0 11.0 0.00 0.01 0.01 76 1002.5
20210622015223 81 258 3.0 9.0 0.00 0.01 0.01 75 1002.5
20210622015015 81 249 3.0 9.0 0.00 0.01 0.01 75 1002.4
20210622014726 81 207 3.0 10.0 0.00 0.01 0.01 74 1002.3
20210622014518 82 262 3.0 10.0 0.00 0.01 0.01 74 1002.3
20210622014210 82 351 3.0 14.0 0.00 0.01 0.01 74 1002.3
20210622014027 82 278 4.0 15.0 0.00 0.01 0.01 74 1002.2
20210622013714 83 262 4.0 15.0 0.00 0.01 0.01 73 1002.1
20210622013510 83 261 5.0 15.0 0.00 0.01 0.01 74 1002.1
20210622013218 83 241 7.0 11.0 0.00 0.01 0.01 75 1002.1
20210622013014 84 196 7.0 11.0 0.00 0.01 0.01 74 1001.9
20210622012722 84 104 4.0 10.0 0.00 0.01 0.01 74 1001.7
20210622012518 84 187 5.0 10.0 0.00 0.01 0.01 74 1001.7
20210622012209 84 204 4.0 8.0 0.00 0.01 0.01 74 1001.6
20210622012021 84 250 3.0 10.0 0.00 0.01 0.01 74 1001.6
20210622011713 84 210 5.0 10.0 0.00 0.01 0.01 74 1001.6
20210622011526 84 200 5.0 10.0 0.00 0.01 0.01 74 1001.6
20210622011217 84 192 6.0 10.0 0.00 0.01 0.01 74 1001.7
20210622011009 84 189 3.0 10.0 0.00 0.01 0.01 74 1001.6
20210622010722 84 194 5.0 10.0 0.00 0.01 0.01 74 1001.6
20210622010514 84 215 7.0 10.0 0.00 0.01 0.01 74 1001.6
20210622010226 84 196 3.0 9.0 0.00 0.01 0.01 74 1001.5
20210622010018 84 204 4.0 9.0 0.00 0.01 0.01 73 1001.4
20210622005709 84 186 5.0 9.0 0.00 0.01 0.01 73 1001.3
20210622005522 84 169 3.0 8.0 0.00 0.01 0.01 73 1001.4
20210622005212 84 202 4.0 8.0 0.00 0.01 0.01 73 1001.5
20210622005008 84 212 3.0 7.0 0.00 0.01 0.01 73 1001.5
20210622004715 84 211 3.0 10.0 0.00 0.01 0.01 73 1001.5
20210622004511 84 196 4.0 10.0 0.00 0.01 0.01 73 1001.5
20210622004220 84 220 3.0 11.0 0.00 0.01 0.01 73 1001.6
20210622004016 84 222 5.0 11.0 0.00 0.01 0.01 73 1001.5
20210622003723 84 167 4.0 10.0 0.00 0.01 0.01 73 1001.3
20210622003519 84 208 6.0 10.0 0.00 0.01 0.01 73 1001.2
20210622003227 85 225 6.0 10.0 0.00 0.01 0.01 73 1001.1
20210622003023 85 214 6.0 10.0 0.00 0.01 0.01 72 1001.1
20210622002715 85 225 4.0 11.0 0.00 0.01 0.01 72 1001.1
20210622002528 85 222 3.0 8.0 0.00 0.01 0.01 72 1001.1
20210622002219 85 191 4.0 10.0 0.00 0.01 0.01 72 1001.1
20210622002011 85 214 5.0 10.0 0.00 0.01 0.01 72 1001.1
20210622001723 85 199 4.0 10.0 0.00 0.01 0.01 71 1001.2
20210622001516 85 215 5.0 10.0 0.00 0.01 0.01 71 1001.2
20210622001227 85 204 5.0 8.0 0.00 0.01 0.01 71 1001.1
20210622001019 85 245 5.0 8.0 0.00 0.01 0.01 71 1001.1
20210622000711 85 212 4.0 8.0 0.00 0.01 0.01 71 1000.9
20210622000523 85 206 4.0 8.0 0.00 0.01 0.01 71 1000.9
20210622000213 85 180 4.0 7.0 0.00 0.01 0.01 70 1000.9
20210622000025 85 206 3.0 7.0 0.00 0.01 0.01 70 1001.0
20210621235717 85 210 4.0 8.0 0.00 0.01 0.01 70 1001.0
20210621235512 86 188 3.0 8.0 0.00 0.01 0.01 70 1001.0
20210621235220 86 196 5.0 10.0 0.00 0.01 0.01 70 1000.9
20210621235017 86 210 4.0 10.0 0.00 0.01 0.01 70 1000.9
20210621234724 86 206 5.0 10.0 0.00 0.01 0.01 70 1000.9
20210621234521 86 209 5.0 10.0 0.00 0.01 0.01 69 1000.9
20210621234209 86 213 5.0 10.0 0.00 0.01 0.01 69 1000.7
20210621234025 86 217 3.0 7.0 0.00 0.01 0.01 69 1000.7
20210621233711 86 231 4.0 8.0 0.00 0.01 0.01 69 1000.7
20210621233528 86 225 4.0 10.0 0.00 0.01 0.01 69 1000.7
20210621233219 86 211 4.0 12.0 0.00 0.01 0.01 69 1000.6
20210621233012 86 248 5.0 12.0 0.00 0.01 0.01 69 1000.6
20210621232724 86 192 6.0 12.0 0.00 0.01 0.01 69 1000.6
20210621232516 86 199 8.0 12.0 0.00 0.01 0.01 69 1000.5
20210621232228 86 185 4.0 11.0 0.00 0.01 0.01 68 1000.5
20210621232020 86 220 7.0 11.0 0.00 0.01 0.01 68 1000.5
20210621231711 86 199 6.0 11.0 0.00 0.01 0.01 68 1000.4
20210621231523 86 209 4.0 10.0 0.00 0.01 0.01 68 1000.4
20210621231214 86 203 5.0 10.0 0.00 0.01 0.01 68 1000.4
20210621231026 86 242 4.0 10.0 0.00 0.01 0.01 68 1000.4
20210621230718 86 185 6.0 14.0 0.00 0.01 0.01 68 1000.3
20210621230509 87 196 5.0 14.0 0.00 0.01 0.01 68 1000.3
20210621230218 87 198 5.0 14.0 0.00 0.01 0.01 67 1000.3
20210621230014 87 125 9.0 14.0 0.00 0.01 0.01 67 1000.3
20210621225722 87 214 5.0 10.0 0.00 0.01 0.01 67 1000.5
20210621225518 87 171 5.0 10.0 0.00 0.01 0.01 67 1000.5
20210621225225 87 197 5.0 10.0 0.00 0.01 0.01 67 1000.4
20210621225021 87 200 5.0 9.0 0.00 0.01 0.01 67 1000.4
20210621224709 87 236 5.0 12.0 0.00 0.01 0.01 67 1000.4
20210621224526 87 214 5.0 12.0 0.00 0.01 0.01 66 1000.4
20210621224213 87 205 7.0 12.0 0.00 0.01 0.01 66 1000.4
20210621224009 88 223 4.0 14.0 0.00 0.01 0.01 66 1000.5
20210621223720 88 200 4.0 14.0 0.00 0.01 0.01 66 1000.5
20210621223513 88 244 7.0 14.0 0.00 0.01 0.01 65 1000.5
20210621223226 88 193 9.0 14.0 0.00 0.01 0.01 65 1000.5
20210621223017 88 208 7.0 11.0 0.00 0.01 0.01 64 1000.5
20210621222708 88 226 5.0 9.0 0.00 0.01 0.01 65 1000.4
20210621222521 88 199 5.0 10.0 0.00 0.01 0.01 65 1000.3
20210621222213 88 161 5.0 11.0 0.00 0.01 0.01 64 1000.2
20210621222025 88 210 6.0 11.0 0.00 0.01 0.01 64 1000.1
20210621221717 88 208 6.0 11.0 0.00 0.01 0.01 64 1000.2
20210621221509 88 171 9.0 11.0 0.00 0.01 0.01 64 1000.2
20210621221220 89 225 6.0 10.0 0.00 0.01 0.01 64 1000.2
20210621221012 89 187 3.0 10.0 0.00 0.01 0.01 64 1000.3
20210621220717 89 183 8.0 10.0 0.00 0.01 0.01 64 1000.4
20210621220513 89 250 4.0 11.0 0.00 0.01 0.01 65 1000.4
20210621220221 89 214 7.0 10.0 0.00 0.01 0.01 63 1000.3
20210621220017 89 169 5.0 10.0 0.00 0.01 0.01 64 1000.3
20210621215724 89 237 3.0 8.0 0.00 0.01 0.01 64 1000.3
20210621215520 89 215 4.0 9.0 0.00 0.01 0.01 63 1000.3
20210621215208 88 199 3.0 11.0 0.00 0.01 0.01 65 1000.4
20210621215025 88 196 5.0 16.0 0.00 0.01 0.01 65 1000.4
20210621214711 88 176 5.0 16.0 0.00 0.01 0.01 65 1000.6
20210621214527 88 233 7.0 16.0 0.00 0.01 0.01 64 1000.6
20210621214219 89 235 7.0 14.0 0.00 0.01 0.01 64 1000.6
20210621214011 89 191 7.0 14.0 0.00 0.01 0.01 64 1000.6
20210621213722 89 204 8.0 14.0 0.00 0.01 0.01 63 1000.7
20210621213514 89 229 7.0 11.0 0.00 0.01 0.01 64 1000.7
20210621213226 89 173 6.0 11.0 0.00 0.01 0.01 64 1000.8
20210621213018 89 191 7.0 11.0 0.00 0.01 0.01 64 1000.9
20210621212710 89 194 5.0 9.0 0.00 0.01 0.01 65 1000.9
20210621212521 89 199 5.0 12.0 0.00 0.01 0.01 65 1001.0
20210621212212 89 189 6.0 12.0 0.00 0.01 0.01 64 1001.1
20210621212025 89 198 6.0 12.0 0.00 0.01 0.01 65 1001.2
20210621211716 89 175 4.0 13.0 0.00 0.01 0.01 66 1001.2
20210621211508 89 239 6.0 13.0 0.00 0.01 0.01 65 1001.2
20210621211221 89 210 5.0 19.0 0.00 0.01 0.01 65 1001.3
20210621211017 88 229 5.0 19.0 0.00 0.01 0.01 66 1001.3
20210621210724 88 237 7.0 19.0 0.00 0.01 0.01 66 1001.4
20210621210520 88 215 11.0 19.0 0.00 0.01 0.01 65 1001.5
20210621210209 88 241 7.0 12.0 0.00 0.01 0.01 65 1001.6
20210621210024 88 193 7.0 12.0 0.00 0.01 0.01 65 1001.6
20210621205711 88 218 6.0 12.0 0.00 0.01 0.01 66 1001.7
20210621205527 88 189 5.0 10.0 0.00 0.01 0.01 67 1001.6
20210621205215 88 241 6.0 13.0 0.00 0.01 0.01 65 1001.6
20210621205010 88 224 5.0 13.0 0.00 0.01 0.01 66 1001.6
20210621204722 88 223 5.0 13.0 0.00 0.01 0.01 65 1001.6
20210621204513 88 220 7.0 13.0 0.00 0.01 0.01 66 1001.7
20210621204225 88 193 7.0 12.0 0.00 0.01 0.01 66 1001.6
20210621204017 88 222 5.0 12.0 0.00 0.01 0.01 65 1001.6
20210621203709 88 198 8.0 14.0 0.00 0.01 0.01 65 1001.7
20210621203521 88 233 8.0 14.0 0.00 0.01 0.01 65 1001.7
20210621203213 88 198 6.0 12.0 0.00 0.01 0.01 67 1001.7
20210621203025 88 223 6.0 16.0 0.00 0.01 0.01 67 1001.6
20210621202717 88 220 6.0 16.0 0.00 0.01 0.01 68 1001.7
20210621202509 88 210 9.0 16.0 0.00 0.01 0.01 67 1001.8
20210621202220 88 193 9.0 14.0 0.00 0.01 0.01 67 1001.8
20210621202012 88 193 9.0 16.0 0.00 0.01 0.01 66 1001.7
20210621201725 88 216 9.0 16.0 0.00 0.01 0.01 65 1001.7
20210621201521 88 193 9.0 16.0 0.00 0.01 0.01 65 1001.7
20210621201208 89 168 7.0 12.0 0.00 0.01 0.01 64 1001.8
20210621201025 89 201 8.0 12.0 0.00 0.01 0.01 64 1001.8
20210621200712 89 235 6.0 13.0 0.00 0.01 0.01 66 1001.8
20210621200509 88 196 2.0 13.0 0.00 0.01 0.01 68 1001.8
20210621200216 88 220 4.0 13.0 0.00 0.01 0.01 68 1001.8
20210621200012 88 193 8.0 14.0 0.00 0.01 0.01 67 1001.8
20210621195719 88 186 7.0 15.0 0.00 0.01 0.01 66 1001.7
20210621195515 88 227 8.0 15.0 0.00 0.01 0.01 67 1001.8
20210621195227 88 216 6.0 15.0 0.00 0.01 0.01 67 1001.8
20210621195018 88 169 8.0 14.0 0.00 0.01 0.01 67 1001.8
20210621194709 87 146 6.0 11.0 0.00 0.01 0.01 69 1001.8
20210621194521 87 234 7.0 12.0 0.00 0.01 0.01 69 1001.7
20210621194214 87 185 7.0 12.0 0.00 0.01 0.01 69 1001.9
20210621194026 87 220 6.0 12.0 0.00 0.01 0.01 69 1001.9
20210621193718 88 177 6.0 15.0 0.00 0.01 0.01 68 1001.9
20210621193510 88 202 8.0 15.0 0.00 0.01 0.01 67 1001.9
20210621193222 88 141 6.0 11.0 0.00 0.01 0.01 66 1001.9
20210621193014 88 197 5.0 13.0 0.00 0.01 0.01 68 1001.9
20210621192727 88 208 4.0 13.0 0.00 0.01 0.01 69 1002.0
20210621192519 88 221 4.0 13.0 0.00 0.01 0.01 67 1002.0
20210621192211 88 196 6.0 11.0 0.00 0.01 0.01 68 1002.2
20210621192027 87 155 7.0 11.0 0.00 0.01 0.01 68 1002.2
20210621191715 87 200 5.0 10.0 0.00 0.01 0.01 69 1002.3
20210621191512 87 191 5.0 10.0 0.00 0.01 0.01 69 1002.4
20210621191219 87 196 6.0 10.0 0.00 0.01 0.01 70 1002.5
20210621191015 87 229 6.0 10.0 0.00 0.01 0.01 70 1002.6
20210621190723 86 224 7.0 11.0 0.00 0.01 0.01 70 1002.7
20210621190519 87 226 6.0 11.0 0.00 0.01 0.01 70 1002.8
20210621190209 86 245 6.0 11.0 0.00 0.01 0.01 69 1002.8
20210621190021 86 215 6.0 11.0 0.00 0.01 0.01 69 1002.8
20210621185713 87 243 7.0 12.0 0.00 0.01 0.01 69 1002.9
20210621185524 87 220 6.0 12.0 0.00 0.01 0.01 68 1003.0
20210621185217 87 169 7.0 12.0 0.00 0.01 0.01 69 1003.1
20210621185008 87 202 7.0 12.0 0.00 0.01 0.01 69 1003.0
20210621184720 86 190 5.0 9.0 0.00 0.01 0.01 71 1003.1
20210621184512 86 212 6.0 9.0 0.00 0.01 0.01 71 1003.2
20210621184224 86 207 7.0 9.0 0.00 0.01 0.01 71 1003.2
20210621184016 86 225 4.0 11.0 0.00 0.01 0.01 71 1003.2
20210621183727 86 233 6.0 11.0 0.00 0.01 0.01 71 1003.3
20210621183519 86 201 5.0 11.0 0.00 0.01 0.01 71 1003.4
20210621183211 86 181 6.0 12.0 0.00 0.01 0.01 71 1003.5
20210621183023 85 212 6.0 10.0 0.00 0.01 0.01 71 1003.5
20210621182715 85 233 4.0 11.0 0.00 0.01 0.01 72 1003.5
20210621182510 85 263 6.0 11.0 0.00 0.01 0.01 71 1003.5
20210621182218 85 216 5.0 11.0 0.00 0.01 0.01 72 1003.5
20210621182015 85 201 6.0 11.0 0.00 0.01 0.01 73 1003.6
20210621181723 85 237 4.0 11.0 0.00 0.01 0.01 72 1003.6
20210621181518 85 233 7.0 11.0 0.00 0.01 0.01 72 1003.7
20210621181225 85 189 5.0 11.0 0.00 0.01 0.01 72 1003.7
20210621181021 85 223 6.0 11.0 0.00 0.01 0.01 72 1003.6
20210621180713 85 231 5.0 12.0 0.00 0.01 0.01 71 1003.7
20210621180526 85 214 4.0 12.0 0.00 0.01 0.01 71 1003.7
20210621180217 85 217 6.0 12.0 0.00 0.01 0.01 71 1003.6
20210621180008 86 210 6.0 12.0 0.00 0.01 0.01 71 1003.6
20210621175720 86 232 5.0 10.0 0.00 0.01 0.01 72 1003.7
20210621175512 85 245 4.0 10.0 0.00 0.01 0.01 72 1003.6
20210621175224 85 186 3.0 11.0 0.00 0.01 0.01 73 1003.7
20210621175015 85 202 6.0 11.0 0.00 0.01 0.01 73 1003.6
20210621174727 85 235 5.0 11.0 0.00 0.01 0.01 73 1003.6
20210621174519 85 279 8.0 11.0 0.00 0.01 0.01 72 1003.6